STARLINK-33643, 63381

Orbit data source: Space-Track

STARLINK-33643, 63381 is a payload satellite owned by SpaceX/Seattle (US) in LEO that was launched on Wed, 26 Mar 2025 UTC via an FALCON 9 launch vehicle from the Air Force Western Test Range (AFWTR). Payload-class satellites include a variety of spacecraft equipped with specific instruments for various scientific and technological missions. These include communications satellites like Starlink; space stations such as the ISS; scientific satellites like the Hubble; Earth observation satellites from companies like Planet Labs, Umbra, and HawkEye 360; GPS; miniature CubeSats for education and research; and military/defense satellites.

Loading next visibility...
Identifier
63381, 2025-063U
Orbit
LEO
Country
Flag of USUS
Related business
Manufacturer
SpaceX/Seattle
Mission
Operational Commercial Communications
Bus & Motor
STARLINK V2MO, Unknown motor
Mass
575 kg wet, ~530 kg dry
Launch date (UTC)
2025-03-26 (1 year ago)
Launch vehicle
FALCON 9
Launch site
Air Force Western Test Range (AFWTR)
Object type
Payload
Rocket body
Debris
Shape & HBR
Box + 2 Pan, 17.7 m
Radar Cross Section
36.964 m², Large (>1 m²)

Expand to show TLE details & history
Last TLE update: 1 day ago

TLE from 1 day ago
0 STARLINK-33643
1 63381U 25063U   26170.73291993  .00014317  00000-0  49454-3 0  9991
2 63381  53.1603 298.4126 0001283  97.0137 263.1010 15.30202645 70383
Epoch: 2026-06-19T17:35Z
TLE epoch observation values (Epoch: 2026-06-19T17:35:24.281Z)
Latitude
-0.00002°
Longitude
126.60375°
Altitude
476.213 km
Speed
7.629 km/s
True Right ascension
19h 53m 39s
True Declination
0° 00' 00"
Sunlit
Object was in full shadow at epoch
Visualization orbit readout
Latitude
Unknown
Longitude
Unknown
Altitude
Unknown
Speed
Unknown
Apparent Right ascension
Unknown
Apparent Declination
Unknown
Sunlit
N/A
Visualization observer readout
Local Sidereal Time
07:17:38
Azimuth
Unknown
Elevation
Unknown
Doppler factor
Unknown
Orbital elements
Apogee altitude
476.343 km
Perigee altitude
474.584 km
Semi-major axis
6,853.601 km
Eccentricity
0.00013
Inclination
53.1603°
RAAN
298.4126°
Arg. of periapsis
97.0137°
True anomaly
263.0864°
Mean anomaly
263.101°
Eccentric anomaly
263.0937°
Mean motion
3.8253 °/min
Orbital period
94.11 mins
BSTAR
0.00049454
Loading maneuver chart data...
Computing Atmospheric mass density...
Loading historical data...
Loading historical data...
Loading historical data...
Loading historical data...
Loading historical data...
Loading historical data...
Loading historical data...

Documentation

Showing up to 5 results
|